Location: *
(35.6833°N, 139.7500°E)
Time: 18:20:53
(UTC+00:00)

Daily predictions for brighter satellites

Satellite Brightness Start Highest point End
(mag) Time Altitude Azimuth Time Altitude Azimuth Time Altitude Azimuth
ATLAS 2AS CENTAUR R/B 3.1 17:56:56 69° SE 17:57:14 69° ESE 18:05:15 10° NE
USA 238 DEB 4.4 18:03:21 31° N 18:06:43 53° NE 18:13:56 10° SE
USA 238 4.5 18:03:24 31° N 18:06:49 53° NE 18:14:02 10° SE
Cosmos 2278 Rocket 4.2 18:06:06 10° N 18:10:42 25° ENE 18:15:16 10° ESE
Cosmos 2333 Rocket 3.6 18:13:46 30° N 18:13:46 30° N 18:16:35 10° NNE
NOSS 0 Rocket 4.1 18:19:10 62° SE 18:19:45 65° ESE 18:25:52 10° NNE
Meteor 1-21 4.5 18:24:29 59° SE 18:25:13 65° E 18:30:47 10° NNE
NOSS 3-2 (A) 4.3 18:25:35 16° NNW 18:32:03 68° ENE 18:40:30 10° SE
IDEFIX/ARIANE 42P 3.1 18:30:27 10° N 18:34:17 50° N 18:34:17 50° N
USA 267 4.3 18:30:55 10° NNE 18:36:14 30° NNW 18:36:14 30° NNW
Cosmos 2219 Rocket 3.4 18:39:30 28° NNW 18:39:30 28° NNW 18:42:27 10° N
BREEZE-M DEB (TANK) 3.3 18:42:33 42° E 18:42:33 42° E 18:44:16 10° ESE
H-2A R/B 3.1 18:39:16 10° NNE 18:42:32 52° NE 18:42:32 52° NE
Cosmos 2237 Rocket 2.1 18:44:48 48° SSW 18:46:29 83° ESE 18:52:13 10° NNE
Cosmos 2181 Rocket 3.8 18:43:38 10° N 18:49:57 73° W 18:56:08 10° S
COSMOS 2441 4.3 18:47:39 10° NNE 18:52:35 85° ESE 18:54:59 31° S
Cosmos 389 Rocket 3.5 18:53:48 44° ENE 18:53:48 44° ENE 18:56:40 10° NNE
MSX 3.7 18:48:39 10° NNE 18:54:24 84° WNW 18:59:29 13° SSW
NOSS 3-2 (C) 4.4 18:48:00 10° NNW 18:55:45 65° ENE 19:04:12 10° SE
COSMOS 2428 4.0 19:03:41 24° NNW 19:03:41 24° NNW 19:06:52 10° N
Cosmos 1980 3.6 19:02:04 45° SW 19:03:39 65° WNW 19:09:16 10° NNE
USA 234 3.3 19:00:42 10° SE 19:07:13 78° NE 19:12:47 15° NW
NOSS 3-4 (A) 3.4 19:06:08 42° WSW 19:07:57 59° NW 19:14:08 10° NNE
NOSS 3-4 (C) 3.4 19:06:08 41° WSW 19:08:03 60° NW 19:14:14 10° NNE
Cosmos 1190 Rocket 3.9 19:07:36 26° SSW 19:10:37 72° WNW 19:15:56 10° NNE
Cosmos 407 Rocket 3.4 19:10:11 38° SW 19:11:56 60° WNW 19:17:00 10° N
CZ-2C R/B 2.4 19:12:08 10° N 19:17:20 79° WNW 19:22:26 10° SSW
CZ-4B R/B 2.7 19:13:38 10° NNE 19:17:38 83° ESE 19:21:23 10° S
Cosmos 921 Rocket 2.8 19:16:03 30° NNW 19:18:00 61° WSW 19:22:07 10° S
Okean O Rocket 4.4 19:15:15 10° NE 19:18:31 20° E 19:21:45 10° SE
Cosmos 292 Rocket 3.6 19:18:00 10° NNW 19:22:46 69° WSW 19:27:33 10° S
Cosmos 44 3.3 19:19:36 11° NNW 19:23:39 64° ENE 19:27:55 10° SE
Cosmos 1953 2.5 19:22:05 10° N 19:26:07 74° E 19:30:05 10° SSE
ATLAS 3B R/B 3.0 19:23:52 10° NNW 19:30:34 67° ENE 19:37:27 10° SE
USA 32 4.5 19:26:00 10° SSW 19:30:49 38° W 19:35:40 10° NNW
Milstar 3 Cent rocket 3.6 19:28:38 13° SW 19:32:44 26° S 19:36:39 10° ESE
Meteor PRIRODA 3.6 19:29:01 10° NNE 19:32:46 84° ESE 19:36:29 10° S
Cosmos 1758 3.6 19:30:32 10° NNW 19:34:21 43° W 19:38:10 10° SSW
Cosmos 2154 Rocket 3.9 19:31:22 10° SSW 19:37:32 75° W 19:43:45 10° N
Cosmos 2327 Rocket 4.5 19:31:27 10° SSW 19:37:37 60° W 19:43:43 10° N
Milstar 3 3.9 19:32:55 10° SW 19:39:00 34° SSE 19:45:21 10° E
BREEZE-M DEB (TANK) 3.6 19:27:12 10° SW 19:39:22 66° SE 19:42:38 10° ENE
SL-16 R/B 2.2 19:33:46 10° SSW 19:39:24 85° ESE 19:45:06 10° NNE
CENTAUR R/B 3.3 19:34:24 10° NNW 19:42:43 89° ENE 19:51:29 10° SSE
Helios 1A Rocket 4.2 19:38:52 10° NNE 19:42:52 44° E 19:46:48 10° S
Meteor 1-16 Rocket 4.3 19:40:09 10° N 19:45:28 74° E 19:50:51 10° SSE
Cosmos 1892 Rocket 3.5 19:41:46 10° S 19:46:12 81° W 19:50:38 10° N
Meteor 1-31 Rocket 3.2 19:43:30 10° N 19:47:00 36° WNW 19:50:28 10° SW
Cosmos 2184 Rocket 4.5 19:41:41 10° SW 19:47:19 36° WNW 19:53:01 10° NNW
Cosmos 1707 3.6 19:45:40 13° SW 19:48:34 28° WNW 19:52:00 10° NNW
Cosmos 1954 Rocket 4.0 19:43:33 10° SSW 19:48:42 58° WNW 19:53:52 10° N
ATLAS 2AS CENTAUR R/B 3.9 19:44:26 18° W 19:48:53 29° NW 19:55:44 10° NNE
RESURS DK-1 2.3 19:45:31 10° SSW 19:49:36 62° WNW 19:53:42 10° NNE
GP-B 3.0 19:49:02 10° S 19:53:28 83° W 19:57:54 10° N
Cosmos 1470 3.8 19:51:24 10° NW 19:54:34 24° W 19:57:42 10° SW
Cosmos 2278 Rocket 2.6 19:49:36 10° NW 19:54:54 42° WSW 20:00:09 10° S
Cosmos 2297 4.5 19:49:39 10° NNW 19:55:18 56° ENE 20:00:54 10° SE
Cosmos 1140 Rocket 4.1 19:51:42 10° SW 19:56:24 34° WNW 20:01:07 10° N
Cosmos 2341 Rocket 4.0 19:56:08 10° S 20:02:22 82° W 20:08:38 10° N
Nadezhda 3 Rocket 4.0 19:56:23 10° NNW 20:02:39 62° W 20:08:50 10° S
Cosmos 1484 Rocket 2.8 20:00:02 10° N 20:03:46 56° WNW 20:07:32 10° SSW
Cosmos 1606 Rocket 3.8 19:59:46 10° NNW 20:03:53 45° W 20:07:59 10° SSW
SJ-12 3.8 20:00:34 10° N 20:04:40 79° WNW 20:08:46 10° SSW
Cosmos 1726 2.0 20:04:27 10° N 20:08:07 89° W 20:11:48 10° S
Meteor 2-5 Rocket 3.8 20:02:33 10° S 20:08:18 89° E 20:14:12 10° N
Meteor 1-4 Rocket 3.8 20:06:37 10° WSW 20:09:13 19° WNW 20:11:49 10° NNW
SL-8 R/B 4.3 20:07:02 10° SW 20:11:44 59° SE 20:16:26 10° ENE
Cosmos 1674 2.5 20:10:42 10° SSW 20:14:23 68° W 20:18:05 10° N
Okean 1-7 Rocket 4.2 20:12:20 10° SW 20:16:22 35° W 20:20:29 10° NNW
USA 116 3.6 20:17:14 10° SSE 20:21:17 89° WSW 20:24:52 10° NNW
PSLV R/B 3.1 20:19:24 10° W 20:21:57 46° NNW 20:24:31 10° ENE
Cosmos 1626 Rocket 3.6 20:18:44 10° S 20:23:02 84° E 20:27:22 10° N
COSMO-SKYMED 1 2.8 20:22:05 10° S 20:26:16 48° W 20:30:29 10° NNW
Cosmos 1741 Rocket 4.0 20:21:37 10° SSW 20:26:54 69° WNW 20:32:14 10° NNE
